Total_Precipitation_Accumulation
2.04 2.54 3.15 3.81 4.63 5.80 6.47 6.63 6.47 5.82 5.31 4.92 4.72 4.46 4.25 3.94 3.40 3.03 2.81 2.71 2.58 2.60 3.01 2.81 2.92 2.76 2.88 3.06 3.18 3.36 3.41 3.19 3.36 3.75 3.63 3.23 2.90 2.88 2.80 2.69 2.76 2.81 2.91
1.97 2.59 3.30 4.05 4.75 5.32 5.68 5.82 5.51 4.77 4.32 4.14 4.17 3.91 3.67 3.33 3.12 2.89 2.92 2.53 2.40 2.51 2.50 2.84 2.71 2.68 2.99 3.03 3.18 3.37 3.27 2.95 3.15 3.70 3.99 3.79 3.78 3.19 2.46 2.62 2.74 2.82 3.14
2.13 2.93 3.70 4.43 4.74 4.79 4.58 4.30 4.17 3.84 3.81 3.83 3.66 3.46 3.38 3.13 2.98 2.81 2.78 2.44 2.15 2.16 2.34 2.46 2.45 2.65 2.63 2.93 3.16 3.20 3.37 3.38 3.16 3.15 3.65 3.72 3.77 3.46 2.82 2.45 2.55 2.87 3.25
2.30 3.00 3.51 3.72 3.85 3.81 3.55 3.39 3.37 3.35 3.36 3.29 3.20 2.93 2.81 2.80 2.68 2.65 2.73 2.61 2.25 2.17 2.25 2.36 2.56 2.70 2.56 2.95 2.67 2.86 3.32 3.54 3.23 3.22 3.11 3.16 3.37 3.46 3.36 2.92 2.58 2.71 2.86
1.94 2.10 2.30 2.42 2.52 2.53 2.72 2.83 2.99 3.19 3.13 3.10 3.15 3.11 2.79 2.72 2.71 2.74 2.91 2.86 2.59 2.34 2.15 2.43 2.79 2.90 2.72 2.77 2.83 3.24 3.22 3.26 3.23 3.21 3.16 3.24 3.31 3.12 3.18 3.17 2.96 2.73 2.35
1.42 1.48 1.55 1.65 1.86 1.86 2.13 2.36 2.51 2.70 2.88 2.95 2.82 2.76 2.73 2.81 2.88 2.89 2.79 2.63 2.52 2.44 2.30 2.49 2.82 2.84 2.91 2.94 2.91 3.05 3.14 3.27 3.37 3.26 3.03 3.10 3.17 3.22 3.38 3.04 2.96 2.98 2.55
1.27 1.50 1.49 1.58 1.75 1.69 1.83 2.12 2.17 2.18 2.34 2.39 2.39 2.50 2.66 2.69 2.54 2.46 2.48 2.34 2.09 2.14 2.27 2.43 2.73 2.73 2.76 2.71 2.97 3.04 3.05 3.20 3.21 3.13 3.09 2.98 2.90 2.98 3.17 3.18 2.96 2.90 2.70
1.26 1.42 1.23 1.28 1.42 1.47 1.64 1.81 1.92 1.96 2.03 2.15 2.30 2.28 2.39 2.32 2.22 2.34 2.21 2.10 1.85 1.75 1.91 2.15 2.26 2.33 2.38 2.38 3.00 2.92 2.98 3.16 3.03 2.77 3.20 3.06 2.72 2.87 3.00 3.32 3.61 3.34 3.10
1.16 1.25 1.13 1.06 1.16 1.30 1.43 1.57 1.68 1.78 1.81 1.96 2.06 2.04 2.09 2.18 2.24 2.25 2.14 1.94 1.97 1.81 1.89 1.95 2.23 2.38 2.49 2.62 2.96 2.90 2.89 3.12 2.91 2.84 3.00 2.89 2.82 2.81 2.75 3.18 3.64 3.89 3.61
1.23 1.30 1.32 1.25 1.25 1.22 1.46 1.60 1.58 1.70 1.76 1.90 1.94 1.74 1.89 2.01 2.21 2.13 2.02 1.93 1.93 1.93 2.09 2.15 2.32 2.47 2.48 2.58 2.80 2.72 2.84 3.02 2.92 2.94 2.95 2.83 2.78 2.92 2.82 2.95 3.29 3.59 3.81
1.28 1.30 1.33 1.23 1.08 1.04 1.28 1.42 1.57 1.70 1.79 1.92 2.03 1.99 1.95 1.87 1.99 2.03 2.00 2.00 1.99 2.01 2.12 2.23 2.40 2.45 2.55 2.69 2.83 2.63 2.79 2.96 3.13 3.01 3.00 3.05 3.19 3.14 3.01 3.10 3.20 3.42 3.74
0.96 1.10 1.19 1.20 1.02 0.95 1.09 1.29 1.45 1.63 1.70 1.81 1.94 2.00 2.16 2.09 2.02 2.01 2.07 2.12 2.23 2.33 2.29 2.35 2.43 2.35 2.43 2.70 2.74 2.69 2.78 2.84 2.84 3.04 3.36 3.27 3.37 3.31 3.13 3.26 3.21 3.36 3.74
0.96 1.06 1.24 1.18 1.14 1.05 1.10 1.21 1.38 1.62 1.83 2.00 2.12 2.23 2.28 2.15 2.07 2.22 2.30 2.31 2.46 2.62 2.66 2.65 2.52 2.46 2.47 2.57 2.68 2.78 2.81 2.81 2.85 3.00 3.11 3.18 3.48 3.33 3.25 3.19 3.15 3.29 3.49
1.09 1.16 1.22 1.26 1.29 1.36 1.41 1.49 1.73 1.79 1.82 2.11 2.45 2.54 2.47 2.34 2.28 2.40 2.48 2.48 2.55 2.69 2.82 2.79 2.73 2.66 2.55 2.42 2.42 2.52 2.63 2.76 2.89 2.94 2.89 2.99 3.24 3.36 3.42 3.20 3.20 3.37 3.48
1.04 1.04 1.07 1.15 1.25 1.39 1.48 1.62 1.67 1.89 2.04 2.32 2.49 2.51 2.60 2.60 2.59 2.68 2.69 2.60 2.62 2.66 2.84 2.89 2.92 2.88 2.66 2.36 2.48 2.68 2.66 2.83 2.81 2.71 2.62 2.63 2.91 3.17 3.27 2.94 3.04 3.26 3.27
1.00 1.08 1.12 1.20 1.34 1.40 1.51 1.63 1.73 1.97 2.27 2.54 2.81 2.86 2.92 2.89 2.91 3.02 3.06 2.94 2.91 3.05 3.08 2.94 2.88 2.82 2.38 2.59 2.66 2.68 2.72 2.88 2.86 2.74 2.66 2.55 2.49 2.51 2.67 2.78 2.93 3.10 3.09
1.16 1.23 1.34 1.34 1.40 1.50 1.62 1.81 1.97 2.21 2.43 2.64 2.92 3.11 3.19 3.18 3.19 3.24 3.23 3.15 3.28 3.48 3.44 3.26 3.07 2.89 2.82 2.82 2.59 2.58 2.44 2.50 2.58 2.69 2.65 2.29 2.07 2.22 2.15 2.40 2.55 2.61 2.70
1.22 1.31 1.51 1.62 1.65 1.69 1.82 2.10 2.31 2.58 2.83 2.96 3.07 3.17 3.21 3.25 3.27 3.31 3.19 3.24 3.40 3.45 3.46 3.36 3.21 3.03 2.90 2.86 2.59 2.59 2.32 2.27 2.30 2.40 2.43 2.35 2.20 2.19 2.34 2.34 2.23 2.12 2.18
1.40 1.52 1.69 1.78 1.88 1.92 2.05 2.19 2.40 2.67 2.94 3.12 3.09 3.08 3.16 3.24 3.29 3.29 3.29 3.35 3.42 3.32 3.19 3.08 3.05 3.01 3.05 3.14 2.83 2.65 2.32 2.30 2.24 2.22 2.23 2.25 2.16 2.39 2.41 2.28 2.21 2.19 2.16
1.50 1.60 1.69 1.68 1.79 1.95 1.98 2.06 2.32 2.62 2.82 3.00 3.07 3.10 3.23 3.28 3.28 3.40 3.48 3.43 3.39 3.31 3.21 3.03 3.02 3.03 3.01 3.17 2.78 2.62 2.34 2.30 2.25 2.26 2.26 2.33 2.24 2.34 2.26 2.13 2.19 2.12 2.09
1.58 1.61 1.67 1.68 1.68 1.82 1.95 2.11 2.25 2.41 2.62 2.84 3.06 3.32 3.51 3.57 3.59 3.62 3.52 3.44 3.35 3.36 3.30 3.16 3.06 3.00 2.93 3.01 2.74 2.53 2.21 2.29 2.45 2.41 2.33 2.34 2.38 2.09 2.03 1.96 1.93 1.96 2.04
1.65 1.63 1.67 1.81 1.89 2.00 2.12 2.17 2.10 2.22 2.47 2.60 2.85 3.04 3.26 3.43 3.47 3.52 3.40 3.42 3.34 3.20 3.06 2.98 2.85 2.78 2.80 2.73 2.63 2.42 2.19 2.24 2.34 2.44 2.49 2.53 2.43 2.00 1.82 1.66 1.62 1.74 1.74
1.88 1.82 1.71 1.79 2.00 2.09 2.21 2.27 2.15 2.11 2.21 2.37 2.58 2.82 3.01 3.29 3.45 3.51 3.45 3.33 3.24 3.04 2.82 2.68 2.53 2.51 2.58 2.62 2.48 2.29 2.21 2.26 2.22 2.26 2.39 2.23 2.08 1.85 1.60 1.54 1.56 1.60 1.54
1.65 1.80 1.77 1.83 2.19 2.17 2.10 2.15 2.18 2.17 2.24 2.36 2.46 2.65 2.80 2.99 3.27 3.36 3.31 3.16 2.90 2.74 2.67 2.59 2.56 2.59 2.66 2.52 2.31 2.12 2.01 2.04 2.02 2.04 2.13 2.10 2.03 1.92 1.76 1.67 1.58 1.50 1.57
1.61 1.63 1.72 1.77 1.91 2.00 2.01 2.01 2.09 2.18 2.22 2.25 2.28 2.33 2.53 2.72 2.91 2.93 2.85 2.71 2.56 2.64 2.67 2.61 2.58 2.49 2.39 2.45 2.39 2.14 1.98 1.93 1.98 1.99 2.01 2.04 2.13 2.15 2.09 2.00 1.89 1.83 1.84
1.61 1.67 1.64 1.63 1.72 1.79 1.92 2.01 2.17 2.30 2.36 2.30 2.24 2.16 2.12 2.23 2.52 2.78 2.83 2.74 2.52 2.53 2.41 2.31 2.26 2.19 2.13 2.18 2.16 2.03 1.92 1.99 2.10 1.95 1.95 2.11 2.19 2.23 2.24 2.23 2.08 1.95 1.84